�������l�o���
Date,Time,MP-1(��Sv/h),MP-2(��Sv/h),MP-3(��Sv/h),MP-4(��Sv/h),MP-5(��Sv/h),MP-6(��Sv/h),MP-7(��Sv/h),MP-8(��Sv/h),����,����(m/s),���J
2019/10/26,00:00,0.681,0.921,0.581,1.138,0.746,0.395,0.673,0.652,�k�k��,9.1,�L
2019/10/26,00:10,0.683,0.927,0.584,1.141,0.750,0.396,0.676,0.654,�k�k��,8.0,�L
2019/10/26,00:20,0.683,0.929,0.587,1.143,0.753,0.398,0.676,0.654,�k�k��,6.6,�L
2019/10/26,00:30,0.685,0.930,0.591,1.146,0.754,0.397,0.676,0.652,�k,8.3,�L
2019/10/26,00:40,0.685,0.932,0.593,1.150,0.757,0.396,0.677,0.652,�k�k��,8.0,�L
2019/10/26,00:50,0.685,0.933,0.596,1.152,0.760,0.398,0.677,0.651,�k�k��,8.2,�L
2019/10/26,01:00,0.684,0.931,0.599,1.151,0.758,0.398,0.676,0.653,�k�k��,8.9,�L
2019/10/26,01:10,0.681,0.930,0.598,1.146,0.758,0.397,0.674,0.650,�k�k��,9.9,�L
2019/10/26,01:20,0.679,0.924,0.598,1.144,0.761,0.400,0.675,0.650,�k�k��,10.1,�L
2019/10/26,01:30,0.681,0.924,0.597,1.143,0.760,0.399,0.676,0.651,�k,9.4,�L
2019/10/26,01:40,0.679,0.926,0.598,1.145,0.761,0.401,0.677,0.650,�k�k��,11.8,�L
2019/10/26,01:50,0.679,0.923,0.596,1.146,0.763,0.400,0.678,0.651,�k�k��,9.9,�L
2019/10/26,02:00,0.680,0.925,0.598,1.146,0.766,0.399,0.677,0.650,�k�k��,10.7,�L
2019/10/26,02:10,0.679,0.927,0.598,1.149,0.767,0.401,0.677,0.651,�k�k��,9.4,�L
2019/10/26,02:20,0.683,0.929,0.601,1.152,0.767,0.401,0.680,0.652,�k�k��,10.5,�L
2019/10/26,02:30,0.682,0.932,0.605,1.154,0.768,0.398,0.679,0.655,�k�k��,8.9,�L
2019/10/26,02:40,0.682,0.931,0.605,1.155,0.771,0.401,0.681,0.653,�k��,11.1,�L
2019/10/26,02:50,0.683,0.933,0.607,1.160,0.773,0.399,0.681,0.653,�k�k��,9.4,�L
2019/10/26,03:00,0.686,0.934,0.608,1.160,0.773,0.398,0.680,0.654,�k��,10.8,�L
2019/10/26,03:10,0.684,0.936,0.609,1.163,0.776,0.400,0.682,0.656,�k��,11.6,�L
2019/10/26,03:20,0.687,0.935,0.612,1.163,0.776,0.399,0.682,0.654,�k��,10.5,�L
2019/10/26,03:30,0.686,0.939,0.611,1.164,0.777,0.401,0.681,0.655,�k��,10.5,�L
2019/10/26,03:40,0.686,0.940,0.612,1.169,0.779,0.401,0.682,0.656,�k�k��,10.8,�L
2019/10/26,03:50,0.686,0.941,0.613,1.168,0.781,0.401,0.682,0.658,�k��,8.5,�L
2019/10/26,04:00,0.687,0.938,0.614,1.169,0.783,0.400,0.683,0.656,�k��,9.6,�L
2019/10/26,04:10,0.686,0.940,0.614,1.170,0.784,0.401,0.684,0.658,�k��,9.1,�L
2019/10/26,04:20,0.689,0.942,0.617,1.175,0.787,0.400,0.684,0.658,�k��,10.2,�L
2019/10/26,04:30,0.687,0.943,0.618,1.177,0.788,0.401,0.685,0.659,�k��,9.4,�L
2019/10/26,04:40,0.688,0.943,0.617,1.178,0.789,0.401,0.685,0.659,�k��,8.6,�L
2019/10/26,04:50,0.689,0.942,0.618,1.177,0.788,0.402,0.686,0.658,�k��,9.9,�L
2019/10/26,05:00,0.689,0.945,0.617,1.179,0.789,0.402,0.685,0.658,�k��,10.2,�L
2019/10/26,05:10,0.687,0.944,0.619,1.180,0.791,0.401,0.686,0.660,�k�k��,9.4,�L
2019/10/26,05:20,0.691,0.946,0.619,1.179,0.795,0.402,0.688,0.658,�k�k��,10.2,�L
2019/10/26,05:30,0.689,0.944,0.620,1.182,0.795,0.402,0.689,0.661,�k��,11.1,��
2019/10/26,05:40,0.690,0.945,0.620,1.183,0.794,0.401,0.689,0.659,�k�k��,13.4,��
2019/10/26,05:50,0.690,0.947,0.619,1.184,0.796,0.400,0.688,0.660,�k��,12.4,��
2019/10/26,06:00,0.692,0.947,0.620,1.185,0.796,0.403,0.688,0.662,�k��,12.1,��
2019/10/26,06:10,0.690,0.950,0.622,1.182,0.795,0.402,0.689,0.662,�k��,9.7,��
2019/10/26,06:20,0.690,0.948,0.620,1.187,0.798,0.402,0.689,0.660,�k��,12.1,��
2019/10/26,06:30,0.690,0.949,0.622,1.186,0.797,0.402,0.690,0.659,�k��,8.8,��
2019/10/26,06:40,0.692,0.948,0.621,1.190,0.799,0.402,0.690,0.661,�k��,8.9,��
2019/10/26,06:50,0.692,0.951,0.622,1.188,0.800,0.401,0.691,0.661,�k��,7.4,��
2019/10/26,07:00,0.691,0.950,0.624,1.189,0.799,0.400,0.689,0.661,�k��,7.5,��
2019/10/26,07:10,0.692,0.949,0.623,1.193,0.800,0.401,0.691,0.662,�k��,7.4,��
2019/10/26,07:20,0.690,0.950,0.622,1.192,0.802,0.401,0.691,0.660,�k��,7.1,��
2019/10/26,07:30,0.690,0.950,0.624,1.191,0.803,0.402,0.691,0.660,�k��,6.7,��
2019/10/26,07:40,0.691,0.953,0.624,1.193,0.805,0.403,0.691,0.659,�k��,6.6,��
2019/10/26,07:50,0.693,0.953,0.625,1.194,0.805,0.402,0.692,0.662,���k��,7.1,��
2019/10/26,08:00,0.692,0.954,0.625,1.192,0.807,0.402,0.692,0.663,���k��,6.7,��
2019/10/26,08:10,0.692,0.957,0.626,1.194,0.806,0.402,0.694,0.661,���k��,6.4,��
2019/10/26,08:20,0.694,0.953,0.627,1.197,0.807,0.402,0.692,0.663,���k��,7.2,��
2019/10/26,08:30,0.694,0.955,0.628,1.195,0.808,0.403,0.694,0.662,���k��,5.5,��
2019/10/26,08:40,0.693,0.955,0.627,1.199,0.809,0.404,0.693,0.662,���k��,5.2,��
2019/10/26,08:50,0.694,0.952,0.627,1.197,0.809,0.402,0.694,0.664,�k��,4.9,��
2019/10/26,09:00,0.694,0.953,0.629,1.198,0.809,0.404,0.696,0.663,�k��,8.2,��
2019/10/26,09:10,0.692,0.954,0.628,1.198,0.811,0.403,0.696,0.664,�k��,9.4,��
2019/10/26,09:20,0.694,0.957,0.631,1.200,0.814,0.402,0.695,0.661,���k��,8.8,��
2019/10/26,09:30,0.694,0.955,0.629,1.201,0.810,0.403,0.696,0.663,�k��,6.3,��
2019/10/26,09:40,0.694,0.955,0.629,1.200,0.812,0.403,0.697,0.663,�k��,9.3,��
2019/10/26,09:50,0.696,0.956,0.629,1.200,0.812,0.402,0.698,0.663,�k��,7.2,��
2019/10/26,10:00,0.695,0.957,0.629,1.198,0.813,0.403,0.697,0.661,�k��,6.0,��
2019/10/26,10:10,0.696,0.957,0.629,1.200,0.811,0.404,0.697,0.662,�k��,7.2,��
2019/10/26,10:20,0.696,0.959,0.631,1.201,0.816,0.403,0.696,0.663,�k��,7.1,��
2019/10/26,10:30,0.697,0.958,0.631,1.202,0.816,0.403,0.696,0.662,�k��,6.7,��
2019/10/26,10:40,0.696,0.959,0.632,1.201,0.818,0.402,0.698,0.662,�k��,6.3,��
2019/10/26,10:50,0.699,0.959,0.631,1.203,0.817,0.404,0.699,0.663,�k��,6.0,��
2019/10/26,11:00,0.697,0.959,0.631,1.206,0.819,0.403,0.699,0.662,���k��,6.9,��
2019/10/26,11:10,0.700,0.962,0.632,1.203,0.818,0.404,0.700,0.663,���k��,5.2,��
2019/10/26,11:20,0.698,0.960,0.635,1.204,0.820,0.405,0.699,0.663,���k��,5.5,��
2019/10/26,11:30,0.700,0.962,0.633,1.206,0.821,0.405,0.700,0.663,���k��,4.2,��
2019/10/26,11:40,0.699,0.964,0.635,1.206,0.820,0.405,0.698,0.663,��,4.5,��
2019/10/26,11:50,0.700,0.964,0.636,1.208,0.823,0.404,0.700,0.663,���k��,5.3,��
2019/10/26,12:00,0.701,0.964,0.637,1.207,0.823,0.407,0.699,0.663,���k��,3.1,��
2019/10/26,12:10,0.701,0.964,0.636,1.208,0.822,0.404,0.699,0.664,�k��,3.3,��
2019/10/26,12:20,0.701,0.965,0.636,1.209,0.824,0.405,0.698,0.665,�k�k��,4.6,��
2019/10/26,12:30,0.701,0.966,0.638,1.208,0.824,0.406,0.701,0.663,�k��,3.8,��
2019/10/26,12:40,0.701,0.967,0.638,1.208,0.825,0.406,0.701,0.665,�k�k��,4.7,��
2019/10/26,12:50,0.701,0.966,0.639,1.210,0.826,0.406,0.702,0.663,�k�k��,5.8,��
2019/10/26,13:00,0.702,0.969,0.639,1.209,0.826,0.405,0.700,0.665,�k�k��,5.5,��
2019/10/26,13:10,0.703,0.967,0.638,1.210,0.827,0.407,0.700,0.664,�k�k��,3.8,��
2019/10/26,13:20,0.702,0.966,0.638,1.211,0.828,0.406,0.702,0.666,�k�k��,3.4,��
2019/10/26,13:30,0.702,0.968,0.641,1.212,0.828,0.406,0.703,0.665,�k,4.1,��
2019/10/26,13:40,0.700,0.967,0.639,1.211,0.826,0.405,0.701,0.665,�k,2.8,��
2019/10/26,13:50,0.702,0.970,0.640,1.211,0.825,0.407,0.701,0.667,�k,2.9,��
2019/10/26,14:00,0.703,0.969,0.640,1.212,0.827,0.407,0.701,0.664,�k�k��,3.0,��
2019/10/26,14:10,0.702,0.969,0.637,1.212,0.828,0.405,0.702,0.666,�k,3.8,��
2019/10/26,14:20,0.700,0.968,0.642,1.211,0.828,0.405,0.700,0.664,�k,4.3,��
2019/10/26,14:30,0.700,0.970,0.640,1.209,0.830,0.406,0.703,0.665,�k,3.0,��
2019/10/26,14:40,0.701,0.970,0.641,1.212,0.829,0.405,0.702,0.666,�k�k��,2.1,��
2019/10/26,14:50,0.701,0.970,0.642,1.211,0.829,0.406,0.702,0.666,�k,1.6,��
2019/10/26,15:00,0.700,0.969,0.640,1.212,0.830,0.405,0.703,0.665,�k,2.4,��
2019/10/26,15:10,0.699,0.970,0.640,1.214,0.829,0.406,0.700,0.665,�k��,1.3,��
2019/10/26,15:20,0.700,0.970,0.640,1.213,0.830,0.406,0.702,0.665,�k��,2.6,��
2019/10/26,15:30,0.702,0.970,0.641,1.214,0.831,0.406,0.702,0.664,�k��,0.8,��
2019/10/26,15:40,0.701,0.970,0.640,1.213,0.832,0.406,0.701,0.665,-,CALM,��
2019/10/26,15:50,0.701,0.972,0.643,1.212,0.828,0.407,0.701,0.665,�k��,0.8,��
2019/10/26,16:00,0.702,0.973,0.644,1.215,0.830,0.406,0.702,0.666,���쐼,2.2,��
2019/10/26,16:10,0.703,0.974,0.645,1.214,0.833,0.407,0.699,0.666,��,3.3,��
2019/10/26,16:20,0.703,0.972,0.642,1.211,0.834,0.406,0.702,0.665,��,3.8,��
2019/10/26,16:30,0.703,0.975,0.643,1.215,0.834,0.406,0.703,0.667,��,5.5,��
2019/10/26,16:40,0.701,0.976,0.645,1.213,0.833,0.406,0.701,0.666,���k��,5.8,��
2019/10/26,16:50,0.703,0.975,0.645,1.215,0.833,0.406,0.703,0.666,���k��,4.9,��
2019/10/26,17:00,0.705,0.976,0.643,1.216,0.834,0.408,0.702,0.667,�k��,5.2,��
2019/10/26,17:10,0.704,0.976,0.647,1.215,0.834,0.406,0.701,0.669,�k��,5.0,��
2019/10/26,17:20,0.702,0.976,0.645,1.216,0.833,0.408,0.701,0.669,�k��,5.2,��
2019/10/26,17:30,0.703,0.977,0.644,1.216,0.835,0.407,0.702,0.669,�k��,4.9,��
2019/10/26,17:40,0.705,0.975,0.645,1.216,0.834,0.407,0.702,0.669,�k�k��,2.2,��
2019/10/26,17:50,0.704,0.977,0.645,1.217,0.836,0.406,0.700,0.669,���k��,2.7,��
2019/10/26,18:00,0.703,0.976,0.645,1.216,0.836,0.408,0.701,0.668,���쐼,2.4,��
2019/10/26,18:10,0.704,0.976,0.644,1.216,0.835,0.406,0.702,0.668,���쐼,3.9,��
2019/10/26,18:20,0.703,0.976,0.644,1.217,0.836,0.406,0.701,0.670,���쐼,3.2,��
2019/10/26,18:30,0.705,0.976,0.645,1.217,0.836,0.407,0.703,0.669,���쐼,3.3,��
2019/10/26,18:40,0.703,0.975,0.645,1.216,0.837,0.408,0.702,0.668,���쐼,1.6,��
2019/10/26,18:50,0.702,0.976,0.644,1.215,0.837,0.409,0.704,0.669,���쐼,1.1,��
2019/10/26,19:00,0.703,0.977,0.645,1.215,0.836,0.409,0.703,0.669,���k��,1.5,��
2019/10/26,19:10,0.705,0.976,0.646,1.216,0.836,0.409,0.706,0.669,�k�k��,2.0,��
2019/10/26,19:20,0.703,0.979,0.644,1.218,0.837,0.407,0.703,0.669,�k�k��,1.4,��
2019/10/26,19:30,0.704,0.979,0.646,1.214,0.836,0.408,0.704,0.669,-,CALM,��
2019/10/26,19:40,0.704,0.977,0.647,1.215,0.836,0.408,0.703,0.669,���쐼,2.7,��
2019/10/26,19:50,0.705,0.982,0.645,1.218,0.837,0.408,0.704,0.670,���쐼,4.6,��
2019/10/26,20:00,0.704,0.977,0.646,1.217,0.838,0.407,0.703,0.670,���쐼,3.4,��
2019/10/26,20:10,0.702,0.978,0.647,1.216,0.837,0.407,0.705,0.670,��,1.6,��
2019/10/26,20:20,0.701,0.977,0.646,1.218,0.838,0.408,0.705,0.671,��,1.9,��
2019/10/26,20:30,0.704,0.979,0.646,1.218,0.838,0.407,0.704,0.669,���k��,1.9,��
2019/10/26,20:40,0.704,0.976,0.645,1.218,0.837,0.407,0.703,0.669,-,CALM,��
2019/10/26,20:50,0.702,0.979,0.645,1.216,0.836,0.406,0.704,0.669,���k��,0.5,��
2019/10/26,21:00,0.703,0.979,0.645,1.217,0.838,0.408,0.705,0.670,���k��,2.1,��
2019/10/26,21:10,0.702,0.978,0.646,1.218,0.839,0.407,0.704,0.670,���k��,2.9,��
2019/10/26,21:20,0.707,0.981,0.646,1.218,0.839,0.410,0.705,0.670,���k��,5.3,��
2019/10/26,21:30,0.703,0.977,0.644,1.217,0.839,0.408,0.704,0.670,���k��,4.9,��
2019/10/26,21:40,0.704,0.977,0.646,1.218,0.839,0.407,0.705,0.670,���k��,5.3,��
2019/10/26,21:50,0.704,0.977,0.647,1.217,0.840,0.408,0.705,0.671,��,4.7,��
2019/10/26,22:00,0.704,0.978,0.646,1.216,0.838,0.408,0.704,0.670,���k��,1.7,��
2019/10/26,22:10,0.705,0.979,0.647,1.220,0.841,0.408,0.704,0.670,-,CALM,��
2019/10/26,22:20,0.705,0.981,0.645,1.217,0.841,0.409,0.703,0.671,�k��,1.0,��
2019/10/26,22:30,0.704,0.980,0.648,1.218,0.839,0.408,0.703,0.670,-,CALM,��
2019/10/26,22:40,0.705,0.980,0.646,1.220,0.840,0.408,0.704,0.669,-,CALM,��
2019/10/26,22:50,0.705,0.981,0.647,1.219,0.839,0.408,0.702,0.671,-,CALM,��
2019/10/26,23:00,0.704,0.980,0.647,1.216,0.839,0.409,0.703,0.670,�k,1.6,��
2019/10/26,23:10,0.705,0.980,0.646,1.219,0.839,0.409,0.704,0.669,�k��,2.5,��
2019/10/26,23:20,0.704,0.980,0.646,1.218,0.840,0.409,0.704,0.669,���k��,5.5,��
2019/10/26,23:30,0.704,0.979,0.646,1.217,0.837,0.408,0.704,0.670,���k��,5.8,��
2019/10/26,23:40,0.704,0.979,0.646,1.220,0.839,0.408,0.705,0.670,���k��,2.6,��
2019/10/26,23:50,0.703,0.980,0.647,1.218,0.842,0.408,0.706,0.670,�k��,3.2,��
